Regional Weather Roundup
Issued by NWS Cleveland, OH

Home | Current Version | Previous Version | Graphics & Text | Print | Product List | Glossary On
Versions: 1 2 3 4 5 6 7 8 9 10 11 12 13 14 15 16 17 18 19 20 21 22 23 24 25 26 27 28 29 30 31 32 33 34 35 36 37 38 39 40 41 42 43 44 45 46 47 48 49 50
892
ASUS41 KCLE 222212
RWRCLE
OHIO REGIONAL WEATHER ROUNDUP
NATIONAL WEATHER SERVICE WILMINGTON, OH
600 PM EDT MON MAY 22 2017

NOTE: "FAIR" INDICATES FEW OR NO CLOUDS BELOW 12,000 FEET WITH NO
SIGNIFICANT WEATHER AND/OR OBSTRUCTIONS TO VISIBILITY.

OHZ001>008-015>018-024>027-034-035-043-044-222300-
   NORTHWEST OHIO

CITY           SKY/WX    TMP DP  RH WIND       PRES   REMARKS
DEFIANCE       FAIR      69  44  40 W9        30.00S
FINDLAY        FAIR      70  44  39 W7        30.00F
TOLEDO EXPRESS FAIR      70  44  39 W16G24    29.99S
TOLEDO EXEC    FAIR      70  45  40 SW16G22   30.00S
LIMA           FAIR      68  47  46 SW7       30.02F
$$

OHZ009>014-019>023-028>033-038-089-222300-
   NORTHEAST OHIO

CITY           SKY/WX    TMP DP  RH WIND       PRES   REMARKS
CLE-HOPKINS    PTSUNNY   70  46  42 SW15G21   30.03S
CLE-LAKEFRONT  FAIR      63  49  60 SW5       30.00F
CUY CO. ARPT   MOSUNNY   68  48  49 W8        30.02F
LORAIN-ELYRIA  FAIR      66  44  45 W12       30.02S
ASHTABULA      FAIR      64  41  42 W14       30.02S
AKRON-CANTON   PTSUNNY   65  44  46 W10       30.03F
WOOSTER        FAIR      65  45  48 NW8       30.04F
MANSFIELD      FAIR      66  46  48 W7        30.04F
YOUNGSTOWN     PTSUNNY   65  44  46 W9        30.02F
$$

OHZ042-051>053-060>062-070>072-077>081-222300-
  SOUTHWEST OHIO

CITY           SKY/WX    TMP DP  RH WIND       PRES   REMARKS
CINC-COVINGTON PTSUNNY   66  44  45 VRB3      30.04F
CINC-LUNKEN    FAIR      69  46  43 CALM      30.05F
HAMILTON       FAIR      70  47  43 CALM      30.04F
DAYTON         PTSUNNY   69  45  41 VRB3      30.04F
WRIGHT-PAT AFB FAIR      70  42  36 NW3       30.02F
DAYTON GENERAL FAIR      68  43  40 NW5       30.03F
WILMINGTON     FAIR      66  46  48 VRB3      30.04F
$$

OHZ036-037-039>041-045>050-054>059-063>069-073>076-082>088-222300-
  CENTRAL AND SOUTHEAST OHIO

CITY           SKY/WX    TMP DP  RH WIND       PRES   REMARKS
COLUMBUS       PTSUNNY   67  46  47 W6        30.04F
OSU AIRPORT    FAIR      68  48  48 CALM      30.04F
BOLTON FIELD   SUNNY     64  46  52 W3        30.04F
RICKENBACK AFB FAIR      66  44  44 N6        30.04S
NEWARK         FAIR      67  44  43 N3        30.04F
MARION         FAIR      68  43  40 NW8       30.04S
LANCASTER      FAIR      69  47  45 NW5       30.05S
ZANESVILLE     FAIR      65  43  44 NW9       30.04S
NEW PHILLY     FAIR      66  46  48 VRB7      30.04F
$$




USA.gov is the U.S. government's official web portal to all federal, state and local government web resources and services.